DROR 1

Last updated on Wed Sep 09 2026 00:03:04 GMT+0000 (Coordinated Universal Time)

1 64784U 25148A 26249.94741653 -.00000052 00000+0 00000+0 0 9997 2 64784 0.0410 270.7414 0000261 311.9433 100.3906 1.00272439 4117
UTC large
Height (km)
Speed (km/s)
/
Latitude / Longitude
Inclination (degrees)
Orbital Period (minutes)
Azimuth
Elevation
Range (km)
Doppler Factor

Next 0 passes for location: London (51.5072 / 0.1276)

No passes found over London.
DROR 1